Retour au catalogue

STARLINK-30807

ActifCommunicationsVLEO
NORAD 58192·PAYLOAD·🇺🇸 United States

Lancé Oct 30, 2023 depuis Cape Canaveral Space Force Station

Loading…

Prochains Passages (prochaines 24 heures)

TLE

FraisSource: CelesTrak SupGP

Époque: Sep 14, 2026, 22:40 UTC

1 58192C 23167T   26257.94493056 -.00066153  00000+0 -23963-2 0  2570
2 58192  43.0026 154.6238 0001299 272.7297 273.5891 15.27608715    16

Suivez STARLINK-30807 en temps réel avec AllMySat

Download on the App Store